Voltar ao catálogo

SL-16 DEB

AtivoLEO
NORAD 22476·DEBRIS·🇷🇺 Russia

Lançado Dec 25, 1992 de Baikonur Cosmodrome

Loading…

Próximas Passagens (próximas 24 horas)

TLE

AtualizadoSource: Space-Track

Época: Sep 14, 2026, 04:36 UTC

1 22476U 92093FR  26257.19176747  .00000616  00000-0  80215-3 0  9990
2 22476  71.5470 185.2152 0460623 217.3382 139.4853 13.28206855615092

Acompanhe SL-16 DEB em tempo real com AllMySat

Download on the App Store